Vorticity
16 -2 10 5 6 5 2 5 7 8 6 8 11 21 6 10 12 11 10 18 25 26 12 19 21 18 8 23 13 14 13 0 0 1 6 7 13 -4 39 8 3 4 4 3
-4 21 4 7 11 10 9 9 7 14 8 12 10 0 15 14 20 16 13 4 9 14 14 15 16 17 20 5 12 17 23 24 -2 -0 3 5 10 3 6 35 10 4 5 5
20 2 5 8 8 8 9 5 6 6 12 18 -3 17 5 14 7 3 0 6 4 9 15 7 11 14 11 15 18 11 13 24 27 12 5 2 2 3 3 5 27 22 10 3
-6 1 5 4 5 5 12 5 9 7 10 7 17 2 6 2 -1 -1 20 15 4 16 5 12 15 14 18 7 13 21 9 8 15 23 20 12 3 1 4 4 -5 -2 1 13
7 8 -2 9 5 9 -4 8 11 11 15 17 8 18 6 -1 0 24 18 23 10 6 18 23 16 14 23 18 13 9 17 9 10 4 16 22 13 5 3 0 8 -0 4 4
5 1 17 -2 15 20 5 23 19 13 13 14 12 9 13 11 28 -2 8 4 -8 2 9 3 21 15 15 16 12 18 11 13 10 13 7 12 24 18 10 3 3 4 1 2
4 -1 17 -15 13 1 10 28 5 3 9 -1 -4 40 2 3 16 4 0 -5 -3 2 7 12 4 13 19 23 21 7 14 12 10 8 16 9 9 13 28 18 5 6 -1 7
4 4 13 -6 14 19 7 12 21 8 6 -10 14 17 23 2 -0 -5 -5 7 5 -0 -0 11 11 8 10 14 24 28 6 17 16 5 8 16 17 6 8 9 25 21 7 8
5 8 0 -2 12 19 13 11 16 9 14 22 5 4 18 5 -12 -7 -5 0 5 3 -2 5 15 12 10 11 13 22 37 4 9 21 1 6 13 16 8 8 10 9 29 19
1 15 -2 1 13 5 19 12 3 8 8 10 5 6 -6 -4 8 6 -30 8 2 1 3 11 7 12 9 10 12 11 17 37 17 4 16 5 6 6 7 6 10 10 6 7
11 9 3 7 9 4 5 14 12 16 4 7 4 3 15 22 28 24 17 5 5 8 19 12 10 10 5 6 7 12 12 19 27 28 14 8 5 6 10 8 2 8 10 10
14 14 7 7 15 5 -2 3 5 12 18 3 -0 2 -3 -8 27 12 24 25 26 21 11 19 16 8 4 3 4 5 8 12 18 23 28 29 11 4 6 7 16 4 7 12
2 6 14 13 16 6 5 1 1 0 16 15 -6 -35 8 34 15 26 23 19 13 9 6 5 13 13 9 9 5 6 9 5 14 21 19 17 29 17 6 -2 12 9 7 5
8 12 -7 -15 -7 -2 -1 1 9 6 5 -8 -30 -11 -5 13 12 23 12 10 11 12 13 16 6 9 6 8 8 7 3 6 7 15 23 21 20 30 31 9 3 7 10 8
16 8 8 8 12 10 9 10 8 9 9 5 -4 11 20 -0 7 6 9 8 5 12 11 16 18 13 12 7 9 4 5 4 3 5 5 23 26 28 26 41 26 22 17 5
13 6 2 4 20 9 9 11 4 4 6 6 8 -0 14 8 6 1 1 8 6 1 12 10 7 12 11 5 10 6 6 5 6 3 1 3 16 22 29 24 18 23 25 35
5 11 7 26 11 14 35 45 34 13 8 10 1 6 14 2 1 4 6 14 4 6 7 11 6 10 8 10 8 8 7 7 8 10 7 4 4 7 21 33 28 14 20 27
2 6 14 5 10 20 13 15 18 6 18 3 8 4 8 3 5 1 16 -5 12 17 16 11 9 9 8 3 8 9 8 8 10 10 10 8 1 4 11 15 33 30 15 19
23 16 -3 -1 12 -14 17 29 -11 12 -5 -8 1 20 -0 -0 7 -1 9 -8 3 8 5 13 11 7 6 10 11 13 8 7 9 12 11 11 16 -1 2 14 3 17 38 26
13 19 -5 19 6 -2 -6 12 20 -1 -2 54 35 2 -1 2 -1 7 13 7 6 11 8 13 12 10 8 8 13 15 11 8 8 9 11 12 12 12 11 4 6 4 2 21
8 10 5 0 -14 16 11 16 -0 6 -7 1 13 1 -13 -8 13 16 16 11 8 8 12 13 12 10 13 9 10 15 11 7 8 9 10 10 11 11 11 9 12 14 6 12
8 13 23 50 5 18 30 17 3 6 -5 8 2 2 4 6 4 4 2 8 2 8 11 9 9 10 11 13 12 11 13 12 9 11 10 10 10 10 9 10 11 10 11 16
17 17 -24 -9 -16 -24 -27 -8 10 10 13 10 10 -11 1 -6 -1 13 10 8 1 7 10 8 8 9 9 11 10 11 12 15 12 12 8 7 6 6 6 7 9 9 9 9
9 22 -1 8 2 13 15 8 2 5 4 -2 2 10 19 5 13 -1 11 4 2 9 13 8 7 7 7 8 9 11 11 10 9 6 5 4 5 5 4 4 6 10 8 9
4 9 9 4 29 34 37 25 27 25 17 16 22 32 32 18 2 13 14 2 4 12 12 9 8 7 8 8 8 7 8 8 7 7 10 8 4 3 4 5 5 4 7 12
31 24 24 12 16 13 15 16 9 0 1 8 11 7 21 18 8 12 9 3 5 13 10 6 6 8 11 11 10 9 8 7 8 8 7 6 7 8 7 6 5 4 6 9
Height
3141 3142 3141 3144 3145 3146 3147 3148 3148 3149 3150 3149 3150 3149 3146 3145 3145 3144 3141 3138 3138 3137 3137 3137 3139 3143 3145 3144 3145 3146 3149 3152 3154 3155 3157 3158 3161 3166 3170 3174 3179 3184 3189 3193
3144 3141 3145 3148 3148 3147 3146 3145 3144 3147 3148 3148 3148 3146 3144 3144 3142 3140 3137 3135 3134 3135 3133 3134 3133 3135 3137 3139 3139 3139 3141 3142 3145 3148 3150 3153 3157 3157 3161 3165 3169 3175 3180 3186
3143 3148 3149 3149 3148 3147 3145 3145 3145 3146 3144 3146 3144 3144 3144 3143 3141 3139 3138 3137 3135 3131 3130 3128 3129 3129 3131 3133 3134 3134 3134 3134 3136 3139 3144 3147 3149 3151 3151 3154 3161 3169 3174 3177
3147 3149 3150 3148 3147 3147 3146 3146 3145 3144 3143 3145 3145 3146 3142 3141 3139 3138 3136 3135 3135 3131 3128 3125 3124 3124 3124 3126 3127 3128 3129 3128 3128 3131 3135 3137 3141 3144 3148 3150 3154 3160 3164 3167
3151 3150 3149 3148 3147 3146 3147 3145 3143 3142 3142 3143 3144 3144 3140 3139 3138 3136 3135 3135 3134 3130 3126 3123 3120 3120 3118 3118 3119 3121 3122 3122 3123 3124 3126 3129 3132 3135 3140 3142 3144 3148 3151 3156
3148 3150 3150 3149 3148 3145 3144 3142 3140 3140 3140 3142 3144 3145 3141 3139 3137 3136 3135 3135 3132 3128 3126 3122 3118 3115 3114 3112 3112 3112 3114 3116 3116 3117 3119 3121 3123 3125 3130 3133 3135 3139 3144 3146
3148 3149 3149 3150 3148 3145 3144 3140 3140 3144 3143 3144 3143 3142 3139 3137 3136 3134 3133 3132 3129 3126 3123 3120 3116 3112 3108 3106 3105 3105 3105 3107 3108 3108 3111 3112 3114 3117 3120 3123 3126 3130 3133 3137
3148 3149 3149 3148 3147 3146 3144 3144 3144 3157 3151 3144 3141 3139 3137 3136 3135 3133 3133 3130 3126 3123 3120 3117 3113 3109 3104 3100 3099 3098 3098 3099 3099 3100 3101 3104 3106 3108 3111 3113 3115 3119 3122 3127
3147 3148 3148 3146 3145 3147 3146 3145 3146 3147 3148 3146 3141 3139 3137 3134 3133 3132 3131 3127 3124 3120 3116 3112 3110 3106 3102 3098 3093 3091 3090 3091 3091 3092 3093 3095 3097 3100 3101 3105 3107 3109 3112 3115
3148 3148 3148 3147 3146 3146 3146 3147 3147 3146 3153 3155 3140 3135 3134 3133 3132 3129 3124 3121 3119 3116 3113 3110 3106 3102 3098 3094 3090 3086 3083 3081 3082 3084 3084 3085 3088 3091 3093 3095 3097 3100 3103 3105
3147 3147 3149 3146 3146 3146 3147 3146 3146 3147 3148 3151 3149 3134 3132 3129 3126 3121 3118 3115 3112 3110 3108 3105 3102 3098 3095 3091 3087 3083 3079 3077 3074 3073 3075 3076 3076 3078 3083 3085 3086 3088 3091 3094
3146 3145 3145 3145 3144 3145 3145 3145 3145 3145 3148 3147 3148 3133 3129 3126 3121 3117 3113 3111 3109 3106 3102 3100 3097 3095 3092 3088 3084 3079 3075 3071 3068 3066 3064 3064 3065 3067 3070 3073 3076 3077 3080 3082
3144 3144 3144 3143 3145 3143 3142 3142 3143 3143 3142 3141 3144 3129 3127 3121 3117 3113 3109 3107 3105 3102 3099 3096 3093 3091 3089 3085 3080 3076 3071 3067 3063 3059 3057 3055 3054 3054 3054 3057 3063 3066 3068 3070
3142 3140 3142 3141 3140 3140 3138 3138 3139 3139 3138 3135 3130 3126 3122 3120 3115 3111 3108 3106 3103 3099 3096 3092 3089 3087 3084 3082 3078 3073 3068 3064 3060 3057 3052 3047 3044 3043 3042 3044 3047 3052 3055 3058
3140 3137 3136 3135 3134 3133 3133 3132 3132 3131 3130 3128 3125 3124 3121 3118 3115 3110 3107 3104 3101 3097 3094 3090 3087 3083 3080 3078 3074 3069 3065 3062 3058 3053 3049 3045 3039 3035 3034 3033 3033 3034 3041 3044
3136 3135 3132 3129 3129 3127 3124 3125 3124 3123 3123 3121 3121 3118 3117 3115 3113 3110 3106 3102 3098 3095 3091 3088 3085 3081 3078 3075 3071 3066 3062 3058 3053 3050 3046 3041 3037 3031 3026 3023 3021 3021 3023 3029
3132 3131 3130 3126 3125 3123 3120 3114 3115 3117 3117 3117 3116 3115 3113 3112 3110 3107 3103 3099 3095 3092 3088 3085 3082 3078 3075 3071 3068 3064 3059 3055 3051 3046 3040 3036 3033 3028 3022 3016 3013 3012 3012 3012
3127 3128 3129 3125 3124 3123 3112 3110 3110 3111 3112 3112 3111 3111 3110 3108 3105 3103 3100 3096 3092 3088 3084 3081 3077 3074 3071 3067 3064 3060 3056 3052 3047 3043 3038 3033 3030 3026 3022 3017 3011 3007 3006 3003
3121 3122 3125 3124 3120 3114 3108 3108 3108 3107 3108 3108 3106 3105 3104 3103 3100 3100 3096 3093 3089 3085 3080 3076 3072 3069 3065 3062 3058 3055 3052 3048 3044 3040 3035 3031 3027 3022 3018 3014 3010 3005 3002 2998
3116 3118 3122 3119 3118 3115 3106 3105 3104 3103 3100 3101 3099 3099 3099 3097 3095 3093 3091 3088 3084 3080 3076 3071 3068 3064 3060 3057 3053 3049 3046 3043 3040 3036 3032 3027 3022 3018 3013 3009 3005 3001 2997 2994
3115 3115 3111 3112 3112 3106 3104 3105 3102 3104 3101 3096 3096 3095 3094 3092 3091 3087 3084 3082 3078 3074 3070 3066 3062 3059 3055 3051 3048 3045 3042 3038 3035 3031 3028 3023 3019 3015 3010 3006 3001 2997 2994 2990
3113 3109 3107 3109 3110 3103 3099 3100 3099 3097 3093 3092 3091 3090 3087 3085 3085 3082 3079 3077 3073 3070 3066 3062 3058 3054 3050 3047 3043 3040 3037 3034 3030 3026 3023 3019 3014 3010 3006 3002 2997 2992 2989 2985
3107 3104 3103 3102 3097 3095 3094 3092 3092 3090 3087 3086 3083 3082 3081 3077 3077 3077 3074 3071 3068 3064 3061 3058 3054 3050 3046 3042 3038 3035 3032 3029 3025 3022 3018 3014 3010 3006 3002 2997 2993 2988 2983 2979
3098 3098 3096 3092 3089 3088 3088 3086 3084 3082 3077 3076 3074 3071 3071 3069 3069 3069 3067 3065 3062 3058 3055 3053 3049 3045 3041 3038 3034 3030 3027 3024 3021 3017 3013 3010 3005 3001 2996 2993 2988 2984 2978 2974
3091 3090 3085 3081 3081 3078 3077 3075 3072 3069 3067 3065 3063 3060 3059 3060 3060 3061 3060 3058 3055 3052 3049 3046 3043 3040 3037 3033 3028 3024 3021 3018 3014 3011 3008 3003 2999 2995 2990 2986 2982 2978 2974 2968
3082 3082 3077 3072 3073 3068 3065 3065 3063 3060 3058 3057 3054 3051 3052 3052 3052 3053 3052 3051 3049 3046 3043 3040 3037 3034 3031 3027 3022 3018 3013 3009 3005 3002 2999 2996 2992 2987 2982 2978 2974 2971 2968 2964